Regional Weather Roundup
Issued by NWS Grand Forks, ND

Home | Current Version | Previous Version | Text Only | Print | Product List | Glossary On
Versions: 1 2 3 4 5 6 7 8 9 10 11 12 13 14 15 16 17 18 19 20 21 22 23 24 25 26 27 28 29 30 31 32 33 34 35 36 37 38 39 40 41 42 43 44 45 46 47 48 49 50
000
ASUS43 KFGF 292110
RWRFGF
PRAIRIE TO PINES  WEATHER ROUNDUP
NATIONAL WEATHER SERVICE EASTERN NORTH DAKOTA/GRAND FORKS ND
400 PM CDT WED JUL 29 2015

 **SATELLITE DATA USED TO AUGMENT SKY COVER AT AUTOMATED STATIONS**
 *****  WEATHER ACROSS EASTERN NORTH DAKOTA  *****

CITY           SKY/WX    TMP DP  RH WIND       PRES   REMARKS
GRAND FORKS    MOSUNNY   80  54  40 W21G35    29.82R
GRAND FRKS AFB MOSUNNY   80  56  43 NW16G33   29.84R
GRAND FRKS NWS   N/A     79 N/A N/A W28         N/A
DEVILS LAKE    MOSUNNY   79  54  41 NW25G35   29.89R
FARGO          MOSUNNY   80  54  40 W21G32    29.90R
WAHPETON ARPT  CLEAR     81  45  28 W25G33    29.94R
$$

 ***** WEATHER ACROSS CENTRAL AND WESTERN NORTH DAKOTA  *****

CITY           SKY/WX    TMP DP  RH WIND       PRES   REMARKS
BISMARCK       PTSUNNY   82  45  27 NW21G29   30.05S
MINOT          MOSUNNY   81  49  32 W23G33    29.97S
JAMESTOWN      PTSUNNY   81  49  32 NW31G40   29.96R
MINOT AFB      MOSUNNY   82  53  35 W28G33    29.95S
GARRISON         N/A     78  52  40 W20G30    30.02S
WILLISTON      MOSUNNY   82  47  29 W24G31    30.04F
DICKINSON      MOSUNNY   79  44  28 NW21G29   30.09F
HETTINGER      SUNNY     82  38  20 W20G32    30.14F
$$

 *****  OTHER AIRPORT OBSERVATIONS IN OUR AREA  *****

CITY           SKY/WX    TMP DP  RH WIND       PRES   REMARKS
WALHALLA       FAIR      77  52  41 MISG      29.79R
GRAFTON AIRPOR FAIR      79  55  44 NW23G32   29.81S
VALLEY CITY AR FAIR      77  54  44 W25G33    29.94S
CANDO          NOT AVBL
CAVALIER APRT  FAIR      81  50  34 W24G37    29.79R
GWINNER        FAIR      81  54  39 W25G33    29.97S
SHEYENNE NWR     N/A     82  52  34 NW21      29.95
ROLLA            N/A     72  55  56 NW22G31   29.91R
 ***** THE ABOVE OBSERVATIONS ARE NON NWS ARE NOT QUALITY
       CONTROLLED AND MAY MIS-REPORT RAIN FOR SNOW...
$$

  *****  WEATHER ACROSS NORTHERN MINNESOTA  *****

CITY           SKY/WX    TMP DP  RH WIND       PRES   REMARKS
FLAG ISLAND    CLOUDY    72  55  56 W21G30    29.65R
WARROAD        MOSUNNY   75  61  60 W18G28    29.71R
ROSEAU         MOSUNNY   75  59  57 W16G32    29.73R
HALLOCK        MOSUNNY   79  48  34 NW22G36   29.77R
THF RVR FALLS  PTSUNNY   77  54  44 W21G35    29.81R
BAUDETTE       CLOUDY    73  55  53 W22G31    29.71R
WASKISH        PTSUNNY   73  57  56 W25G35    29.75R
CROOKSTON      SUNNY     81  54  39 W23G36    29.83R
$$
  *****  WEATHER ACROSS CENTRAL AND WEST MINNESOTA  *****

CITY           SKY/WX    TMP DP  RH WIND       PRES   REMARKS
FOSSTON        PTSUNNY   75  52  43 W28G33    29.85R
BEMIDJI        PTSUNNY   77  54  44 W28G38    29.82R
PARK RAPIDS    PTSUNNY   79  52  38 W25G44    29.87R
ELBOW LAKE     FAIR      78  56  45 W18G24    29.95S
WADENA         MOSUNNY   79  52  38 W24G37    29.90R
DETROIT LAKES  SUNNY     77  48  36 W23G35    29.92R
MOORHEAD       MOSUNNY   79  54  41 W20G31    29.91R
FERGUS FALLS   SUNNY     79  54  41 W25G35    29.92R
MORRIS MN      MOSUNNY   81  55  41 W23G30    29.96S
STAPLES        PTSUNNY   77  52  41 W20G32    29.89S
$$
  *****  WEATHER ELSEWHERE ACROSS MINNESOTA  *****

CITY           SKY/WX    TMP DP  RH WIND       PRES   REMARKS
DULUTH         PTSUNNY   73  56  54 W12G25    29.80R
INTRNTL FALLS  CLOUDY    67  57  70 W12G18    29.70R
ELY            CLOUDY    66  55  68 W21G32    29.74S
CLOQUET        CLOUDY    75  48  38 SW17G25   29.81S
WHEATON        SUNNY     79  52  38 W20G32    29.97S
BRAINERD       PTSUNNY   77  53  43 W16G26    29.87S
HIBBING        LGT RAIN  72  56  57 W9G17     29.78R
ALEXANDRIA     MOSUNNY   79  52  38 W23G40    29.96S
SAINT CLOUD    PTSUNNY   80  53  39 W26G38    29.92S
MINNEAPOLIS    MOSUNNY   82  54  37 W26G36    29.93F
$$

  *****  WEATHER ACROSS SOUTH DAKOTA  *****

CITY           SKY/WX    TMP DP  RH WIND       PRES   REMARKS
SIOUX FALLS    MOSUNNY   82  52  35 NW14G24   30.09F
BROOKINGS      SUNNY     81  52  36 W25G31    30.08S
WATERTOWN      SUNNY     81  50  33 W24G32    30.05S
HURON          SUNNY     85  48  27 W21G26    30.06F
SISSETON         N/A     81  51  35 NW25G37   29.96S
ABERDEEN       MOSUNNY   84  48  28 W24G35    30.02F
MITCHELL       SUNNY     86  47  25 NW16G26   30.09F
PIERRE         SUNNY     87  38  17 W22G33    30.09F
MOBRIDGE       SUNNY     85  48  27 NW21G26   30.05F
RAPID CITY     SUNNY     82  47  29 N8        30.20F
$$

  *****  SOME WEATHER IN NEARBY STATES *****

CITY           SKY/WX    TMP DP  RH WIND       PRES   REMARKS
GLASGOW MT     NOT AVBL
GREAT FALLS MT SUNNY     80  35  19 SW7       30.18S
CHEYENNE WY    SUNNY     79  47  32 E7        30.33F
SCOTTSBLUFF NE SUNNY     85  49  28 S10G20    30.22F
OMAHA NE       MOSUNNY   85  56  37 NW8       30.15S
DES MOINES IA  MOSUNNY   85  51  31 NW15      30.11F
DAVENPORT IA   SUNNY     82  60  47 W8        30.06F
CHICAGO IL     MOSUNNY   86  52  30 NW18G25   29.96F
EAU CLAIRE WI  SUNNY     82  53  36 W22G32    29.91S
LA CROSSE WI   SUNNY     84  51  31 W25G31    29.94F
$$

  *****  SOME NATIONAL WEATHER *****

CITY           SKY/WX    TMP DP  RH WIND       PRES   REMARKS
LA GUARDIA NY  PTSUNNY   92  63  38 S14G20    29.91S HX  93
RALEIGH NC     MOSUNNY   91  69  48 VRB6      29.97F HX  96
ATLANTA GA     PTSUNNY   87  73  62 SE12      29.96S HX  94
NEW ORLEANS LA MOSUNNY   99  68  36 N5        29.95F HX 104
OKLAHOMA CITY  MOSUNNY   96  70  42 SE9       30.04S HX 102
ALBUQUERQUE NM TSTM      69  63  81 SE6       30.30R
SALT LAKE CITY MOSUNNY   83  32  16 N7        30.26F
LOS ANGELES CA MOSUNNY   74  64  71 W15       29.95F
BOISE ID       SUNNY     86  29  12 E7        30.20F
SEATTLE WA     SUNNY     86  51  29 N8        30.16F
$$

*** WEATHER ACROSS MANITOBA...SASKATCHEWAN AND ONTARIO ***
                ***ONTARIO***

CITY           SKY/WX    TMP DP  RH WIND       PRES   REMARKS
GERALDTON      NOT AVBL
THUNDER BAY    PTSUNNY   75  59  57 W18G31    29.61R
SIOUX LOOKOUT  LGT RAIN  66  63  88 W12G28    29.49R
TORONTO        MOSUNNY   88  63  42 SE13      29.87F
BIG TROUT LK   PTSUNNY   66  61  82 SW6       29.25F
PICKLE LAKE    PTSUNNY   68  59  73 W18G29    29.35S
DRYDEN         PTSUNNY   64  61  88 W23G32    29.56  FOG
KENORA         LGT RAIN  64  59  82 W14G26    29.63S
$$
                *** MANITOBA***

CITY           SKY/WX    TMP DP  RH WIND       PRES   REMARKS
BRANDON        PTSUNNY   77  57  50 NW21G35   29.85R
DAUPHIN        SUNNY     77  48  36 NW21G31   29.78R
ISLAND LAKE    LGT RAIN  64  63  94 NE6       29.35R
PILOT MOUND      N/A     75  54  46 NW21G30     N/A
THE PAS        PTSUNNY   73  57  56 NW10G21   29.73R
THOMPSON       LGT RAIN  61  57  88 N13G18    29.65R
WINNIPEG       MOSUNNY   75  55  50 NW30G39   29.72R
LYNN LAKE        N/A    N/A N/A N/A MISG        N/A
GILLAM         DRIZZLE   55  54  94 N25G33    29.49R
$$
                ***SASKATCHEWAN***

CITY           SKY/WX    TMP DP  RH WIND       PRES   REMARKS
ESTEVAN        MOSUNNY   79  50  36 W22G31    29.99S
KINDERSLEY     PTSUNNY   75  43  31 NW13      30.03S
LLOYDMINSTER   MOSUNNY   73  45  35 W18G26    30.00F
PRINCE ALBERT  MOSUNNY   77  54  44 W18G26    29.86S
REGINA         NOT AVBL
YORKTON        SUNNY     75  55  50 NW23G32   29.87R
N. BATTLEFORD  SUNNY     75  46  35 NW21G33   29.99R
LA RONGE       MOSUNNY   79  52  38 NW10G18   29.80F
SASKATOON      MOSUNNY   77  48  36 W18G25    29.96S
SWIFT CURRENT  PTSUNNY   79  48  34 NW13G23   30.06F
$$
NOTE: THESE ARE AUTOMATED STATIONS WITH LIMITED QUALITY CONTROL
      "FAIR" INDICATES FEW OR NO CLOUDS BELOW 12,000 FEET WITH NO
      SIGNIFICANT WEATHER AND/OR OBSTRUCTIONS TO VISIBILITY.
      SKY/WX - SKY CONDITION AND SIGNIFICANT WEATHER.
      TMP - AIR TEMPERATURE.    DP   - DEWPOINT TEMPERATURE.
      RH  - RELATIVE HUMIDITY.  PRES - PRESSURE.
      HX  - HEAT INDEX.         WCI  - WIND CHILL INDEX.
$



USA.gov is the U.S. government's official web portal to all federal, state and local government web resources and services.